This demonstration page uses our WeatherBlox Daily Observations layout. Learn more.

Left ArrowRight Arrow

47.50024, -111.30081

Hourly Observations for October 2, 2019

Temp ( °F °C ) Dew Point ( °F °C ) Humidity (%) Winds ( mph kmh ) Pressure ( in mb ) Visibility ( mi km ) Precip ( " mm )
12:35 am 00:35 Mostly Cloudy with Freezing Fog 17 -8.3 15 -9.4 92 92 W 3 6 30.34 1027 1 1 0.00 0.00
12:42 am 00:42 Mostly Cloudy with Mist and Fog 18 -7.8 15 -9.4 88 88 W 3 6 30.33 1027 2 2 0.00 0.00
12:47 am 00:47 Cloudy with Mist and Fog 18 -8 16 -9 93 93 Calm 30.34 1027 3 5 0.00 0.00
12:53 am 00:53 Cloudy with Mist and Fog 19 -7.2 16 -8.9 88 88 W 3 6 30.28 1026 4 6 0.00 0.00
1:53 am 01:53 Cloudy with Mist and Fog 21 -6.1 17 -8.3 85 85 Calm 30.27 1025 6 10 0.00 0.00
2:53 am 02:53 Cloudy with Mist and Fog 22 -5.6 20 -6.7 92 92 Calm 30.26 1025 6 10 0.00 0.00
3:53 am 03:53 Cloudy 24 -4.4 21 -6.1 88 88 SSW 5 7 30.24 1024 7 11 0.00 0.00
4:53 am 04:53 Cloudy 23 -5 20 -6.7 88 88 WSW 3 6 30.22 1024 8 13 0.00 0.00
5:53 am 05:53 Cloudy 22 -5.6 19 -7.2 89 89 WSW 5 7 30.24 1024 7 11 0.00 0.00
6:53 am 06:53 Clear 20 -6.7 17 -8.3 89 89 SSW 5 7 30.24 1024 10 16 0.00 0.00
7:53 am 07:53 Sunny 18 -7.8 15 -9.4 88 88 SSW 5 7 30.26 1025 8 13 0.00 0.00
8:13 am 08:13 Mostly Cloudy with Mist and Fog 18 -7.8 16 -8.9 92 92 SW 5 7 30.31 1027 1 2 0.00 0.00
8:18 am 08:18 Mostly Cloudy with Freezing Fog 18 -7.8 15 -9.4 88 88 WSW 5 7 30.31 1027 0 0 0.00 0.00
8:42 am 08:42 Mostly Cloudy with Freezing Fog 18 -7.8 15 -9.4 88 88 WSW 5 7 30.31 1027 5 8 0.00 0.00
8:53 am 08:53 Mostly Cloudy with Freezing Fog 18 -7.8 16 -8.9 92 92 WSW 5 7 30.26 1025 5 8 0.00 0.00
9:33 am 09:33 Mostly Cloudy with Mist and Fog 21 -6.1 18 -7.8 88 88 WSW 6 9 30.29 1026 1 2 0.00 0.00
9:35 am 09:35 Partly Cloudy with Mist and Fog 21 -6.1 18 -7.8 88 88 WSW 5 7 30.30 1026 2 2 0.00 0.00
9:37 am 09:37 Partly Cloudy with Mist and Fog 21 -6.1 19 -7.2 92 92 WSW 5 7 30.30 1026 3 5 0.00 0.00
9:53 am 09:53 Sunny 22 -5.6 20 -6.7 92 92 Calm 30.26 1025 10 16 0.00 0.00
10:53 am 10:53 Sunny 25 -3.9 22 -5.6 88 88 SW 5 7 30.27 1025 10 16 0.00 0.00
11:53 am 11:53 Sunny 30 -1.1 26 -3.3 85 85 SW 7 11 30.25 1024 10 16 0.00 0.00
12:53 pm 12:53 Sunny 34 1.1 27 -2.8 76 76 SW 7 11 30.22 1024 10 16 0.00 0.00
1:53 pm 13:53 Sunny 36 2.2 29 -1.7 76 76 SSW 8 13 30.20 1023 10 16 0.00 0.00
2:53 pm 14:53 Sunny 39 3.9 30 -1.1 70 70 SSW 7 11 30.17 1022 10 16 0.00 0.00
3:53 pm 15:53 Sunny 43 6.1 29 -1.7 58 58 SSW 9 15 30.16 1021 10 16 0.00 0.00
4:53 pm 16:53 Sunny 42 5.6 30 -1.1 62 62 SW 7 11 30.16 1021 10 16 0.00 0.00
5:53 pm 17:53 Sunny 44 6.7 30 -1.1 58 58 S 5 7 30.16 1021 10 16 0.00 0.00
6:53 pm 18:53 Sunny 40 4.4 30 -1.1 68 68 ESE 6 9 30.18 1022 10 16 0.00 0.00
7:53 pm 19:53 Clear 37 2.8 30 -1.1 76 76 ESE 7 11 30.19 1022 10 16 0.00 0.00
8:53 pm 20:53 Clear 36 2.2 29 -1.7 76 76 SSE 8 13 30.20 1023 10 16 0.00 0.00
9:53 pm 21:53 Clear 33 0.6 25 -3.9 72 72 SSW 8 13 30.19 1023 10 16 0.00 0.00
10:53 pm 22:53 Clear 32 0 24 -4.4 73 73 SSW 8 13 30.18 1022 10 16 0.00 0.00
11:40 pm 23:40 Clear 31 -0.6 23 -5 72 72 WSW 6 9 30.17 1022 10 16 0.00 0.00
11:53 pm 23:53 Clear 28 -2.2 22 -5.6 78 78 SW 6 9 30.18 1022 10 16 0.00 0.00

Powered by AerisWeather